Location: Caltech
(34.1382°N, 118.1253°W)
Time: 00:29:48
(UTC-07:00)

UOSAT-12 - Visible Passes

Search period start: 16 April 2014 00:00
Search period end: 26 April 2014 00:00
Orbit: 598 x 661 km, 64.6° (Epoch: 15 April)

Date Brightness Start Highest point End Pass type
(mag) Time Alt. Az. Time Alt. Az. Time Alt. Az.
16 Apr 10.0 02:39:16 10° NNE 02:41:50 14° NE 02:42:19 14° NE visible
16 Apr 8.9 04:17:45 10° NW 04:19:21 21° NW 04:19:21 21° NW visible
16 Apr 10.7 20:10:09 10° NW 20:10:35 10° NW 20:11:01 10° NW visible
17 Apr 9.8 02:58:44 10° N 02:59:41 15° N 02:59:41 15° N visible
